Location: Eaton
(41.3139°N, 82.0207°W)
Time: 00:14:43
(UTC+00:00)

Cosmos 2369 Rocket - Visible Passes

Search period start: 27 October 2021 00:00
Search period end: 06 November 2021 00:00
Orbit: 830 x 851 km, 71.0° (Epoch: 26 October)

Date Brightness Start Highest point End Pass type
(mag) Time Alt. Az. Time Alt. Az. Time Alt. Az.
03 Nov 4.7 01:25:30 10° N 01:25:41 11° N 01:25:41 11° N visible
04 Nov 4.5 01:10:10 10° N 01:10:46 13° N 01:10:46 13° N visible
05 Nov 4.3 00:54:50 10° N 00:55:54 15° N 00:55:54 15° N visible
